Time,TemperatureF,DewpointF,PressureIn,WindDirection,WindDirectionDegrees,WindSpeedMPH,WindSpeedGustMPH,Humidity,HourlyPrecipIn,Conditions,Clouds,dailyrainin,SolarRadiationWatts/m^2,SoftwareType,DateUTC
2013-07-30 00:13:00,53.0,45.0,-100.00,WNW,298,5.0,16.0,74,0.00,,,0.45,0.000000,,2013-07-30 06:13:00,
2013-07-30 00:23:00,53.0,45.0,-100.00,WNW,298,5.0,16.0,74,0.00,,,0.45,0.000000,,2013-07-30 06:23:00,
2013-07-30 00:33:00,53.0,45.0,-100.00,WNW,298,5.0,16.0,74,0.00,,,0.45,0.000000,,2013-07-30 06:33:00,
2013-07-30 00:43:00,53.0,45.0,-100.00,WNW,298,5.0,16.0,74,0.00,,,0.45,0.000000,,2013-07-30 06:43:00,
2013-07-30 00:50:00,53.0,44.0,-100.00,WSW,249,7.0,13.0,72,0.00,,,0.40,0.000000,,2013-07-30 06:50:00,
2013-07-30 01:13:00,53.0,44.0,-100.00,WSW,249,7.0,13.0,72,0.00,,,0.40,0.000000,,2013-07-30 07:13:00,
2013-07-30 01:23:00,53.0,44.0,-100.00,WSW,249,7.0,13.0,72,0.00,,,0.40,0.000000,,2013-07-30 07:23:00,
2013-07-30 01:33:00,53.0,44.0,-100.00,WSW,249,7.0,13.0,72,0.00,,,0.40,0.000000,,2013-07-30 07:33:00,
2013-07-30 01:43:00,53.0,44.0,-100.00,WSW,249,7.0,13.0,72,0.00,,,0.40,0.000000,,2013-07-30 07:43:00,
2013-07-30 01:50:00,53.0,45.0,-100.00,West,277,1.0,13.0,73,0.00,,,0.32,0.000000,,2013-07-30 07:50:00,
2013-07-30 02:13:00,53.0,45.0,-100.00,West,277,1.0,13.0,73,0.00,,,0.32,0.000000,,2013-07-30 08:13:00,
2013-07-30 02:23:00,53.0,45.0,-100.00,West,277,1.0,13.0,73,0.00,,,0.32,0.000000,,2013-07-30 08:23:00,
2013-07-30 02:33:00,53.0,45.0,-100.00,West,277,1.0,13.0,73,0.00,,,0.32,0.000000,,2013-07-30 08:33:00,
2013-07-30 02:43:00,53.0,45.0,-100.00,West,277,1.0,13.0,73,0.00,,,0.32,0.000000,,2013-07-30 08:43:00,
2013-07-30 02:50:00,50.0,44.0,-100.00,WSW,237,4.0,5.0,80,0.00,,,0.11,0.000000,,2013-07-30 08:50:00,
2013-07-30 03:13:00,50.0,44.0,-100.00,WSW,237,4.0,5.0,80,0.00,,,0.11,0.000000,,2013-07-30 09:13:00,
2013-07-30 03:23:00,50.0,44.0,-100.00,WSW,237,4.0,5.0,80,0.00,,,0.11,0.000000,,2013-07-30 09:23:00,
2013-07-30 03:33:00,50.0,44.0,-100.00,WSW,237,4.0,5.0,80,0.00,,,0.11,0.000000,,2013-07-30 09:33:00,
2013-07-30 03:43:00,50.0,44.0,-100.00,WSW,237,4.0,5.0,80,0.00,,,0.11,0.000000,,2013-07-30 09:43:00,
2013-07-30 03:50:00,49.0,43.0,-100.00,WSW,242,4.0,6.0,80,0.00,,,0.10,0.000000,,2013-07-30 09:50:00,
2013-07-30 04:12:00,49.0,43.0,-100.00,WSW,242,4.0,6.0,80,0.00,,,0.10,0.000000,,2013-07-30 10:12:00,
2013-07-30 04:22:00,49.0,43.0,-100.00,WSW,242,4.0,6.0,80,0.00,,,0.10,0.000000,,2013-07-30 10:22:00,
2013-07-30 04:32:00,49.0,43.0,-100.00,WSW,242,4.0,6.0,80,0.00,,,0.10,0.000000,,2013-07-30 10:32:00,
2013-07-30 04:43:00,49.0,43.0,-100.00,WSW,242,4.0,6.0,80,0.00,,,0.10,0.000000,,2013-07-30 10:43:00,
2013-07-30 04:50:00,49.0,43.0,-100.00,SW,230,5.0,8.0,79,0.00,,,0.10,0.000000,,2013-07-30 10:50:00,
2013-07-30 05:11:00,49.0,43.0,-100.00,SW,230,5.0,8.0,79,0.00,,,0.10,0.000000,,2013-07-30 11:11:00,
2013-07-30 05:22:00,49.0,43.0,-100.00,SW,230,5.0,8.0,79,0.00,,,0.10,0.000000,,2013-07-30 11:22:00,
2013-07-30 05:33:00,49.0,43.0,-100.00,SW,230,5.0,8.0,79,0.00,,,0.10,0.000000,,2013-07-30 11:33:00,
2013-07-30 05:43:00,49.0,43.0,-100.00,SW,230,5.0,8.0,79,0.00,,,0.10,0.000000,,2013-07-30 11:43:00,
2013-07-30 05:50:00,49.0,42.0,-100.00,WNW,301,5.0,10.0,78,0.00,,,0.10,0.000000,,2013-07-30 11:50:00,
2013-07-30 06:22:00,49.0,42.0,-100.00,WNW,301,5.0,10.0,78,0.00,,,0.10,0.000000,,2013-07-30 12:22:00,
2013-07-30 06:33:00,49.0,42.0,-100.00,WNW,301,5.0,10.0,78,0.00,,,0.10,0.000000,,2013-07-30 12:33:00,
2013-07-30 06:42:00,49.0,42.0,-100.00,WNW,301,5.0,10.0,78,0.00,,,0.10,0.000000,,2013-07-30 12:42:00,
2013-07-30 06:50:00,50.0,43.0,-100.00,SW,232,3.0,8.0,76,0.00,,,0.10,12.000000,,2013-07-30 12:50:00,
2013-07-30 07:22:00,50.0,43.0,-100.00,SW,232,3.0,8.0,76,0.00,,,0.10,12.000000,,2013-07-30 13:22:00,
2013-07-30 07:32:00,50.0,43.0,-100.00,SW,232,3.0,8.0,76,0.00,,,0.10,12.000000,,2013-07-30 13:32:00,
2013-07-30 07:42:00,50.0,43.0,-100.00,SW,232,3.0,8.0,76,0.00,,,0.10,12.000000,,2013-07-30 13:42:00,
2013-07-30 07:50:00,59.0,46.0,-100.00,NW,305,3.0,9.0,63,0.00,,,0.10,176.000000,,2013-07-30 13:50:00,
2013-07-30 08:12:00,59.0,46.0,-100.00,NW,305,3.0,9.0,63,0.00,,,0.10,176.000000,,2013-07-30 14:12:00,
2013-07-30 08:22:00,59.0,46.0,-100.00,NW,305,3.0,9.0,63,0.00,,,0.10,176.000000,,2013-07-30 14:22:00,
2013-07-30 08:33:00,59.0,46.0,-100.00,NW,305,3.0,9.0,63,0.00,,,0.10,176.000000,,2013-07-30 14:33:00,
2013-07-30 08:43:00,59.0,46.0,-100.00,NW,305,3.0,9.0,63,0.00,,,0.10,176.000000,,2013-07-30 14:43:00,
2013-07-30 08:50:00,66.0,48.0,-100.00,ESE,115,1.0,6.0,52,0.00,,,0.10,400.000000,,2013-07-30 14:50:00,
2013-07-30 09:23:00,66.0,48.0,-100.00,ESE,115,1.0,6.0,52,0.00,,,0.10,400.000000,,2013-07-30 15:23:00,
2013-07-30 09:33:00,66.0,48.0,-100.00,ESE,115,1.0,6.0,52,0.00,,,0.10,400.000000,,2013-07-30 15:33:00,
2013-07-30 09:43:00,66.0,48.0,-100.00,ESE,115,1.0,6.0,52,0.00,,,0.10,400.000000,,2013-07-30 15:43:00,
2013-07-30 09:50:00,71.0,49.0,-100.00,SSW,212,2.0,5.0,45,0.00,,,0.10,622.000000,,2013-07-30 15:50:00,
2013-07-30 10:12:00,71.0,49.0,-100.00,SSW,212,2.0,5.0,45,0.00,,,0.10,622.000000,,2013-07-30 16:12:00,
2013-07-30 10:22:00,71.0,49.0,-100.00,SSW,212,2.0,5.0,45,0.00,,,0.10,622.000000,,2013-07-30 16:22:00,
2013-07-30 10:33:00,71.0,49.0,-100.00,SSW,212,2.0,5.0,45,0.00,,,0.10,622.000000,,2013-07-30 16:33:00,
2013-07-30 10:43:00,71.0,49.0,-100.00,SSW,212,2.0,5.0,45,0.00,,,0.10,622.000000,,2013-07-30 16:43:00,
2013-07-30 10:50:00,73.0,44.0,-100.00,WNW,285,7.0,14.0,35,0.00,,,0.10,820.000000,,2013-07-30 16:50:00,
2013-07-30 11:12:00,73.0,44.0,-100.00,WNW,285,7.0,14.0,35,0.00,,,0.10,820.000000,,2013-07-30 17:12:00,
2013-07-30 11:22:00,73.0,44.0,-100.00,WNW,285,7.0,14.0,35,0.00,,,0.10,820.000000,,2013-07-30 17:22:00,
2013-07-30 11:32:00,73.0,44.0,-100.00,WNW,285,7.0,14.0,35,0.00,,,0.10,820.000000,,2013-07-30 17:32:00,
2013-07-30 11:43:00,73.0,44.0,-100.00,WNW,285,7.0,14.0,35,0.00,,,0.10,820.000000,,2013-07-30 17:43:00,
2013-07-30 11:50:00,74.0,45.0,-100.00,WNW,283,6.0,14.0,35,0.00,,,0.10,985.000000,,2013-07-30 17:50:00,
2013-07-30 12:12:00,74.0,45.0,-100.00,WNW,283,6.0,14.0,35,0.00,,,0.10,985.000000,,2013-07-30 18:12:00,
2013-07-30 12:23:00,74.0,45.0,-100.00,WNW,283,6.0,14.0,35,0.00,,,0.10,985.000000,,2013-07-30 18:23:00,
2013-07-30 12:32:00,74.0,45.0,-100.00,WNW,283,6.0,14.0,35,0.00,,,0.10,985.000000,,2013-07-30 18:32:00,
2013-07-30 12:43:00,74.0,45.0,-100.00,WNW,283,6.0,14.0,35,0.00,,,0.10,985.000000,,2013-07-30 18:43:00,
2013-07-30 12:50:00,77.0,47.0,-100.00,WNW,291,6.0,14.0,35,0.00,,,0.10,1154.000000,,2013-07-30 18:50:00,
2013-07-30 13:12:00,77.0,47.0,-100.00,WNW,291,6.0,14.0,35,0.00,,,0.10,1154.000000,,2013-07-30 19:12:00,
2013-07-30 13:22:00,77.0,47.0,-100.00,WNW,291,6.0,14.0,35,0.00,,,0.10,1154.000000,,2013-07-30 19:22:00,
2013-07-30 13:33:00,77.0,47.0,-100.00,WNW,291,6.0,14.0,35,0.00,,,0.10,1154.000000,,2013-07-30 19:33:00,
2013-07-30 13:44:00,77.0,47.0,-100.00,WNW,291,6.0,14.0,35,0.00,,,0.10,1154.000000,,2013-07-30 19:44:00,
2013-07-30 13:50:00,78.0,48.0,-100.00,ENE,62,2.0,9.0,35,0.00,,,0.09,1183.000000,,2013-07-30 19:50:00,
2013-07-30 14:12:00,78.0,48.0,-100.00,ENE,62,2.0,9.0,35,0.00,,,0.09,1183.000000,,2013-07-30 20:12:00,
2013-07-30 14:22:00,78.0,48.0,-100.00,ENE,62,2.0,9.0,35,0.00,,,0.09,1183.000000,,2013-07-30 20:22:00,
2013-07-30 14:33:00,78.0,48.0,-100.00,ENE,62,2.0,9.0,35,0.00,,,0.09,1183.000000,,2013-07-30 20:33:00,
2013-07-30 14:43:00,78.0,48.0,-100.00,ENE,62,2.0,9.0,35,0.00,,,0.09,1183.000000,,2013-07-30 20:43:00,
2013-07-30 14:50:00,79.0,36.0,-100.00,West,276,6.0,13.0,21,0.00,,,0.09,1156.000000,,2013-07-30 20:50:00,
2013-07-30 16:22:00,79.0,32.0,-100.00,West,280,8.0,17.0,18,0.00,,,0.09,1040.000000,,2013-07-30 22:22:00,
2013-07-30 17:12:00,79.0,29.0,-100.00,WNW,287,8.0,19.0,16,0.00,,,0.09,896.000000,,2013-07-30 23:12:00,
2013-07-30 17:32:00,79.0,29.0,-100.00,WNW,287,8.0,19.0,16,0.00,,,0.09,896.000000,,2013-07-30 23:32:00,
2013-07-30 17:42:00,79.0,29.0,-100.00,WNW,287,8.0,19.0,16,0.00,,,0.09,896.000000,,2013-07-30 23:42:00,
2013-07-30 17:50:00,78.0,30.0,-100.00,West,261,7.0,17.0,17,0.00,,,0.09,701.000000,,2013-07-30 23:50:00,
2013-07-30 18:50:00,77.0,32.0,-100.00,West,267,6.0,13.0,19,0.00,,,0.00,467.000000,,2013-07-31 00:50:00,
2013-07-30 19:12:00,77.0,32.0,-100.00,West,267,6.0,13.0,19,0.00,,,0.00,467.000000,,2013-07-31 01:12:00,
2013-07-30 19:22:00,77.0,32.0,-100.00,West,267,6.0,13.0,19,0.00,,,0.00,467.000000,,2013-07-31 01:22:00,
2013-07-30 19:32:00,77.0,32.0,-100.00,West,267,6.0,13.0,19,0.00,,,0.00,467.000000,,2013-07-31 01:32:00,
2013-07-30 19:42:00,77.0,32.0,-100.00,West,267,6.0,13.0,19,0.00,,,0.00,467.000000,,2013-07-31 01:42:00,
2013-07-30 19:50:00,74.0,35.0,-100.00,WNW,288,4.0,12.0,24,0.00,,,0.00,208.000000,,2013-07-31 01:50:00,
2013-07-30 20:12:00,74.0,35.0,-100.00,WNW,288,4.0,12.0,24,0.00,,,0.00,208.000000,,2013-07-31 02:12:00,
2013-07-30 20:22:00,74.0,35.0,-100.00,WNW,288,4.0,12.0,24,0.00,,,0.00,208.000000,,2013-07-31 02:22:00,
2013-07-30 20:32:00,74.0,35.0,-100.00,WNW,288,4.0,12.0,24,0.00,,,0.00,208.000000,,2013-07-31 02:32:00,
2013-07-30 20:42:00,74.0,35.0,-100.00,WNW,288,4.0,12.0,24,0.00,,,0.00,208.000000,,2013-07-31 02:42:00,
2013-07-30 20:50:00,65.0,35.0,-100.00,West,270,2.0,6.0,33,0.00,,,0.00,23.000000,,2013-07-31 02:50:00,
2013-07-30 21:12:00,65.0,35.0,-100.00,West,270,2.0,6.0,33,0.00,,,0.00,23.000000,,2013-07-31 03:12:00,
2013-07-30 21:22:00,65.0,35.0,-100.00,West,270,2.0,6.0,33,0.00,,,0.00,23.000000,,2013-07-31 03:22:00,
2013-07-30 21:32:00,65.0,35.0,-100.00,West,270,2.0,6.0,33,0.00,,,0.00,23.000000,,2013-07-31 03:32:00,
2013-07-30 21:42:00,65.0,35.0,-100.00,West,270,2.0,6.0,33,0.00,,,0.00,23.000000,,2013-07-31 03:42:00,
2013-07-30 21:50:00,61.0,41.0,-100.00,WSW,252,6.0,8.0,48,0.00,,,0.00,0.000000,,2013-07-31 03:50:00,
2013-07-30 22:12:00,61.0,41.0,-100.00,WSW,252,6.0,8.0,48,0.00,,,0.00,0.000000,,2013-07-31 04:12:00,
2013-07-30 22:22:00,61.0,41.0,-100.00,WSW,252,6.0,8.0,48,0.00,,,0.00,0.000000,,2013-07-31 04:22:00,
2013-07-30 22:32:00,61.0,41.0,-100.00,WSW,252,6.0,8.0,48,0.00,,,0.00,0.000000,,2013-07-31 04:32:00,
2013-07-30 22:42:00,61.0,41.0,-100.00,WSW,252,6.0,8.0,48,0.00,,,0.00,0.000000,,2013-07-31 04:42:00,
2013-07-30 22:50:00,58.0,40.0,-100.00,WSW,254,6.0,9.0,51,0.00,,,0.00,0.000000,,2013-07-31 04:50:00,
2013-07-30 23:11:00,58.0,40.0,-100.00,WSW,254,6.0,9.0,51,0.00,,,0.00,0.000000,,2013-07-31 05:11:00,
2013-07-30 23:22:00,58.0,40.0,-100.00,WSW,254,6.0,9.0,51,0.00,,,0.00,0.000000,,2013-07-31 05:22:00,
2013-07-30 23:32:00,58.0,40.0,-100.00,WSW,254,6.0,9.0,51,0.00,,,0.00,0.000000,,2013-07-31 05:32:00,
2013-07-30 23:42:00,58.0,40.0,-100.00,WSW,254,6.0,9.0,51,0.00,,,0.00,0.000000,,2013-07-31 05:42:00,
2013-07-30 23:50:00,55.0,40.0,-100.00,WSW,250,6.0,9.0,57,0.00,,,0.00,0.000000,,2013-07-31 05:50:00,